Flag for Guatemala Weather past 2 weeks in Guatemala, Guatemala

Now
70 °F

Scattered clouds.


Feels Like: 70 °F
Forecast: 57 / 77 °F
Wind: 18 mph from North

Location: Guatemala Aeropuertola Aurora

Current Time: Mar 3, 2015 at 10:38:21 AM

Latest Report: Mar 3, 2015 at 10:00 AM


Visibility: N/A

Pressure: 30.33 "Hg

Humidity: 53%

Dew point: 52 °F

Location of GuatemalaLocation

Historic Weather in Guatemala — Graph

°F

Guatemala temperature yesterday

Maximum temperature yesterday: 73 °F (at 12:00 PM)
Minimum temperature yesterday: 57 °F (at 6:00 AM)
Average temperature yesterday: 66 °F

Past Weeks' High & Low Weather Summary

 TemperatureHumidityPressure
High81 °F (Feb 17, 2:00 PM)100% (Feb 17, 5:00 AM)30.42 "Hg (Feb 17, 5:00 AM)
Low54 °F (Feb 20, 4:00 AM)32% (Feb 22, 3:00 PM)30.15 "Hg (Feb 26, 3:00 PM)
Average66 °F72%30.29 "Hg
* Reported Feb 16 9:00 AM — Mar 3 9:00 AM, Guatemala, Weather by CustomWeather, © 2015

Note: Actual official high and low records may vary slightly from our data, if they occured in-between our weather recording intervals... More about our weather records

Advertising

Guatemala weather history for previous 24 hours

 ConditionsComfort  
Time TempWeatherWind HumidityBarometerVisibility
9:00 AM
Tue, Mar 3
66 °FScattered clouds.18 mph56%30.33 "HgN/A
8:00 AM63 °FPartly sunny.12 mph68%30.33 "HgN/A
7:00 AM59 °FScattered clouds.12 mph77%30.30 "HgN/A
6:00 AM57 °FPassing clouds.14 mph82%30.27 "HgN/A
5:00 AM57 °FPassing clouds.12 mph82%30.27 "HgN/A
4:00 AM59 °FPassing clouds.14 mph88%30.27 "HgN/A
3:00 AM59 °FPassing clouds.16 mph82%30.27 "HgN/A
2:00 AM59 °FPassing clouds.18 mph82%30.30 "HgN/A
1:00 AM61 °FPassing clouds.18 mph72%30.30 "HgN/A
12:00 AM61 °FPassing clouds.21 mph77%30.33 "HgN/A
11:00 PM
Mon, Mar 2
63 °FPassing clouds.18 mph77%30.36 "HgN/A
10:00 PM63 °FPassing clouds.21 mph83%30.36 "HgN/A
9:00 PM64 °FPassing clouds.18 mph78%30.33 "HgN/A
8:00 PM64 °FPassing clouds.23 mph78%30.30 "HgN/A
7:00 PM68 °FPassing clouds.21 mph69%30.30 "HgN/A
6:00 PM70 °FPassing clouds.21 mph60%30.27 "HgN/A
5:00 PM72 °FScattered clouds.18 mph57%30.27 "HgN/A
4:00 PM73 °FPassing clouds.16 mph53%30.27 "HgN/A
3:00 PM73 °FScattered clouds.14 mph61%30.27 "HgN/A
2:00 PM72 °FPartly sunny.7 mph61%30.30 "HgN/A
1:00 PM72 °FPartly sunny.18 mph65%30.33 "HgN/A
12:00 PM73 °FPartly sunny.21 mph57%30.36 "HgN/A
11:00 AM72 °FPartly sunny.21 mph61%30.39 "HgN/A
10:00 AM70 °FScattered clouds.18 mph64%30.39 "HgN/A
Weather by CustomWeather, © 2015

See weather overviewHow to use our weather pages